Tracking 19817 objects as of 19-Aug-2019
HD Live streaming from Space Station
objects crossing your sky now

COSMOS 1174

Track COSMOS 1174 now!
10-day predictions
COSMOS 1174 is classified as:


NORAD ID: 11765
Int'l Code: 1980-030A
Perigee: 374.1 km
Apogee: 1,161.0 km
Inclination: 66.1 °
Period: 100.0 minutes
Semi major axis: 7138 km
RCS: 4.5129 m2 (large)
Launch date: April 18, 1980
Source: Commonwealth of Independent States (former USSR) (CIS)
Launch site: TYURATAM MISSILE AND SPACE COMPLEX (TTMTR)
aabbcc
Your satellite tracking list
Your tracking list is empty




NASA's NSSDC Master Catalog

Two Line Element Set (TLE):
1 11765U 80030A   19230.91644360 +.00000119 +00000-0 +16352-4 0  9991
2 11765 066.0852 281.7907 0551168 193.3888 165.2077 14.39423513018382
Source of the keplerian elements: AFSPC